Location: Unspecified
(0.0000°N, 0.0000°E)
Time: 17:29:22
(UTC+00:00)

Hubble Space Telescope - Pass Details

Date: 10 January 2018
Orbit: 537 x 541 km, 28.5° (Epoch: 19 January)

Event Time Altitude Azimuth Distance (km) Brightness Sun altitude
Rises 19:36:06 0° 208° (SSW) 2,677 5.1 -20.4°
Reaches altitude 10° 19:39:44 10° 175° (S) 1,786 3.6 -21.3°
Maximum altitude 19:41:18 12° 153° (SSE) 1,670 3.2 -21.6°
Enters shadow 19:41:33 12° 149° (SSE) 1,673 3.2 -21.7°
